When you browse on this site, cookies collect data to enhance your experience and personalize the content and advertising you see.
Visit our Privacy Policy to learn more. By continuing to use the site, you agree to this use of cookies and data.
  • Em Portugal
  • Lista de países
  • Para 7 dias
  • Temperatura da água
  • Mapas de satélite
  • Mapa do tempo
  • Widgets de tempo
  • user-avatar
    Iniciar Sessão

    Previsão horária em Klagenfurt

    Hoje, 24 Janeiro, Quinta-feira

    Tempo Temperatura Precipitação Vento Pressão Humidade
    00:00 -6°C° 0.1 mm 1 m/s 675 mmHg 91%
    01:00 -6°C° 0 mm 1 m/s 675 mmHg 91%
    02:00 -6°C° 0 mm 1 m/s 675 mmHg 90%
    03:00 -6°C° 0 mm 1 m/s 676 mmHg 89%
    04:00 -6°C° 0 mm 1 m/s 676 mmHg 88%
    05:00 -6°C° 0 mm 1 m/s 676 mmHg 88%
    06:00 -7°C° 0 mm 1 m/s 676 mmHg 88%
    07:00 -7°C° 0 mm 1 m/s 677 mmHg 88%
    08:00 -6°C° 0 mm 1 m/s 677 mmHg 83%
    09:00 -4°C° 0 mm 1 m/s 677 mmHg 78%
    10:00 -3°C° 0 mm 1 m/s 678 mmHg 73%
    11:00 -2°C° 0 mm 1 m/s 678 mmHg 69%
    12:00 0°C° 0 mm 1 m/s 678 mmHg 66%
    13:00 -1°C° 0 mm 2 m/s 678 mmHg 63%
    14:00 +1°C° 0 mm 1 m/s 678 mmHg 66%
    15:00 0°C° 0 mm 1 m/s 678 mmHg 68%
    16:00 0°C° 0 mm 1 m/s 679 mmHg 71%
    17:00 -1°C° 0 mm 1 m/s 679 mmHg 76%
    18:00 -2°C° 0 mm 1 m/s 679 mmHg 81%
    19:00 -3°C° 0 mm 1 m/s 679 mmHg 86%
    20:00 -4°C° 0 mm 1 m/s 680 mmHg 86%
    21:00 -4°C° 0 mm 1 m/s 680 mmHg 86%
    22:00 -6°C° 0 mm 1 m/s 680 mmHg 87%
    23:00 -6°C° 0 mm 1 m/s 680 mmHg 85%

    Amanhã, 25 Janeiro, Sexta-feira

    Tempo Temperatura Precipitação Vento Pressão Humidade
    00:00 -6°C° 0 mm 1 m/s 680 mmHg 84%
    01:00 -7°C° 0 mm 1 m/s 680 mmHg 82%
    02:00 -8°C° 0 mm 2 m/s 680 mmHg 81%
    03:00 -8°C° 0 mm 2 m/s 681 mmHg 79%
    04:00 -9°C° 0 mm 2 m/s 681 mmHg 78%
    05:00 -8°C° 0 mm 1 m/s 681 mmHg 78%
    06:00 -8°C° 0 mm 1 m/s 681 mmHg 78%
    07:00 -8°C° 0 mm 1 m/s 681 mmHg 78%
    08:00 -8°C° 0 mm 2 m/s 682 mmHg 72%
    09:00 -6°C° 0 mm 2 m/s 682 mmHg 67%
    10:00 -5°C° 0 mm 2 m/s 683 mmHg 62%
    11:00 -4°C° 0 mm 2 m/s 683 mmHg 59%
    12:00 -3°C° 0 mm 2 m/s 683 mmHg 56%
    13:00 -2°C° 0 mm 2 m/s 683 mmHg 53%
    14:00 -2°C° 0 mm 2 m/s 683 mmHg 56%
    15:00 -3°C° 0 mm 2 m/s 683 mmHg 60%
    16:00 -1°C° 0 mm 1 m/s 684 mmHg 63%
    17:00 -4°C° 0 mm 2 m/s 684 mmHg 67%
    18:00 -5°C° 0 mm 2 m/s 684 mmHg 72%
    19:00 -7°C° 0 mm 2 m/s 685 mmHg 76%
    20:00 -7°C° 0 mm 2 m/s 685 mmHg 76%
    21:00 -8°C° 0 mm 2 m/s 685 mmHg 76%
    22:00 -7°C° 0 mm 1 m/s 686 mmHg 76%
    23:00 -8°C° 0 mm 2 m/s 686 mmHg 75%

    Depois de amanhã, 26 Janeiro, Sábado

    Tempo Temperatura Precipitação Vento Pressão Humidade
    00:00 -8°C° 0 mm 2 m/s 686 mmHg 74%
    01:00 -8°C° 0 mm 2 m/s 686 mmHg 74%
    02:00 -7°C° 0 mm 1 m/s 686 mmHg 73%
    03:00 -8°C° 0 mm 1 m/s 686 mmHg 73%
    04:00 -8°C° 0 mm 1 m/s 686 mmHg 72%
    05:00 -8°C° 0 mm 1 m/s 686 mmHg 70%
    06:00 -8°C° 0 mm 1 m/s 686 mmHg 68%
    07:00 -8°C° 0 mm 1 m/s 686 mmHg 66%
    08:00 -6°C° 0 mm 1 m/s 686 mmHg 60%
    09:00 -3°C° 0 mm 1 m/s 686 mmHg 54%
    10:00 -2°C° 0 mm 0 m/s 686 mmHg 48%
    11:00 0°C° 0 mm 0 m/s 686 mmHg 45%
    12:00 +2°C° 0 mm 1 m/s 686 mmHg 42%
    13:00 +4°C° 0 mm 1 m/s 686 mmHg 39%
    14:00 +3°C° 0 mm 1 m/s 685 mmHg 45%
    15:00 +2°C° 0 mm 1 m/s 685 mmHg 51%
    16:00 +2°C° 0 mm 1 m/s 684 mmHg 57%
    17:00 +1°C° 0 mm 1 m/s 684 mmHg 60%
    18:00 0°C° 0 mm 1 m/s 684 mmHg 62%
    19:00 0°C° 0 mm 1 m/s 684 mmHg 64%
    20:00 0°C° 0 mm 1 m/s 684 mmHg 66%
    21:00 0°C° 0 mm 1 m/s 684 mmHg 68%
    22:00 0°C° 0 mm 1 m/s 684 mmHg 70%
    23:00 0°C° 0 mm 1 m/s 684 mmHg 71%

    27 Janeiro, Domingo

    Tempo Temperatura Precipitação Vento Pressão Humidade
    00:00 0°C° 0 mm 1 m/s 683 mmHg 73%
    01:00 -1°C° 0 mm 1 m/s 683 mmHg 75%
    02:00 -1°C° 0 mm 1 m/s 682 mmHg 75%
    03:00 -1°C° 0 mm 1 m/s 682 mmHg 75%
    04:00 -1°C° 0 mm 1 m/s 681 mmHg 75%
    05:00 -1°C° 0 mm 1 m/s 681 mmHg 75%
    06:00 -1°C° 0 mm 1 m/s 680 mmHg 74%
    07:00 -1°C° 0 mm 1 m/s 680 mmHg 73%
    08:00 0°C° 0 mm 1 m/s 680 mmHg 68%
    09:00 +1°C° 0 mm 1 m/s 680 mmHg 63%
    10:00 +2°C° 0 mm 1 m/s 680 mmHg 58%
    11:00 +2°C° 0 mm 1 m/s 679 mmHg 56%
    12:00 +2°C° 0 mm 2 m/s 679 mmHg 53%
    13:00 +3°C° 0 mm 2 m/s 678 mmHg 50%
    14:00 +2°C° 0 mm 2 m/s 678 mmHg 55%
    15:00 +2°C° 0 mm 2 m/s 677 mmHg 59%
    16:00 +1°C° 0 mm 2 m/s 676 mmHg 64%
    17:00 -1°C° 0 mm 2 m/s 676 mmHg 70%
    18:00 0°C° 0 mm 1 m/s 676 mmHg 76%
    19:00 -1°C° 0 mm 1 m/s 676 mmHg 82%
    20:00 -1°C° 0.2 mm 1 m/s 676 mmHg 84%
    21:00 0°C° 0.2 mm 1 m/s 676 mmHg 85%
    22:00 -1°C° 0.2 mm 0 m/s 675 mmHg 87%
    23:00 -1°C° 1.6 mm 0 m/s 675 mmHg 89%

    28 Janeiro, Segunda-feira

    Tempo Temperatura Precipitação Vento Pressão Humidade
    00:00 -1°C° 1.6 mm 0 m/s 674 mmHg 91%
    01:00 -1°C° 1.6 mm 0 m/s 674 mmHg 92%
    02:00 -1°C° 1.4 mm 0 m/s 673 mmHg 93%
    03:00 0°C° 1.4 mm 0 m/s 673 mmHg 93%
    04:00 0°C° 1.4 mm 0 m/s 672 mmHg 93%
    05:00 0°C° 0.5 mm 0 m/s 672 mmHg 94%
    06:00 +1°C° 0.5 mm 1 m/s 672 mmHg 94%
    07:00 +1°C° 0.5 mm 1 m/s 672 mmHg 94%
    08:00 +2°C° 0.1 mm 1 m/s 672 mmHg 93%
    09:00 +2°C° 0.1 mm 1 m/s 672 mmHg 92%
    10:00 +3°C° 0.1 mm 1 m/s 673 mmHg 92%
    11:00 +3°C° 0 mm 1 m/s 673 mmHg 89%
    12:00 +4°C° 0 mm 1 m/s 673 mmHg 87%
    13:00 +4°C° 0 mm 1 m/s 673 mmHg 84%
    14:00 +4°C° 0 mm 1 m/s 673 mmHg 86%
    15:00 +2°C° 0 mm 0 m/s 674 mmHg 87%
    16:00 +2°C° 0 mm 0 m/s 674 mmHg 89%
    17:00 +1°C° 0 mm 0 m/s 674 mmHg 90%
    18:00 0°C° 0 mm 0 m/s 675 mmHg 91%
    19:00 -1°C° 0 mm 0 m/s 675 mmHg 93%
    20:00 -1°C° 0 mm 0 m/s 676 mmHg 92%
    21:00 -1°C° 0 mm 0 m/s 676 mmHg 91%
    22:00 0°C° 0 mm 1 m/s 677 mmHg 91%
    23:00 -1°C° 0 mm 1 m/s 677 mmHg 90%

    29 Janeiro, Terça-feira

    Tempo Temperatura Precipitação Vento Pressão Humidade
    00:00 -1°C° 0 mm 1 m/s 678 mmHg 88%
    01:00 -1°C° 0 mm 1 m/s 678 mmHg 87%
    02:00 -1°C° 0 mm 1 m/s 679 mmHg 86%
    03:00 -1°C° 0 mm 1 m/s 679 mmHg 85%
    04:00 -1°C° 0 mm 1 m/s 680 mmHg 83%
    05:00 -1°C° 0 mm 1 m/s 680 mmHg 83%
    06:00 -1°C° 0 mm 1 m/s 681 mmHg 83%
    07:00 -1°C° 0 mm 1 m/s 681 mmHg 82%
    08:00 -1°C° 0 mm 1 m/s 682 mmHg 79%
    09:00 0°C° 0 mm 1 m/s 683 mmHg 76%
    10:00 0°C° 0 mm 1 m/s 683 mmHg 73%
    11:00 +1°C° 0 mm 1 m/s 683 mmHg 70%
    12:00 +1°C° 0 mm 1 m/s 683 mmHg 67%
    13:00 +1°C° 0 mm 0 m/s 683 mmHg 65%
    14:00 +1°C° 0 mm 1 m/s 683 mmHg 69%
    15:00 +1°C° 0 mm 1 m/s 683 mmHg 74%
    16:00 0°C° 0 mm 1 m/s 683 mmHg 78%
    17:00 -1°C° 0.1 mm 1 m/s 683 mmHg 83%
    18:00 -1°C° 0.1 mm 1 m/s 684 mmHg 87%
    19:00 -2°C° 0.1 mm 1 m/s 684 mmHg 92%
    20:00 -3°C° 0 mm 1 m/s 684 mmHg 92%
    21:00 -4°C° 0 mm 0 m/s 684 mmHg 93%
    22:00 -4°C° 0 mm 0 m/s 684 mmHg 93%
    23:00 -5°C° 0 mm 0 m/s 684 mmHg 92%
    Mostrar mais